{"data":{"norad_id":62881,"intl_designator":"2025-024C","name":"STARLINK-11382 [DTC]","alt_names":[],"object_type":"PAYLOAD","status":"ACTIVE","operator":null,"country":"US","launch_date":"2025-02-04","launch_site_code":"AFETR","launch_vehicle":null,"mission":null,"orbit_class":"UNKNOWN","rcs_meters":null,"size_class":null,"mass_kg":null,"dimensions":null,"purposes":["comms"],"wikipedia_slug":null,"has_3d_model":false,"image_url":null,"decayed_at":null,"tle_current":{"epoch":"2026-05-25T03:59:39.342048Z","epoch_age_seconds":63868,"freshness":"FRESH","line1":"1 62881U 25024C   26145.16642757  .00298577  00000+0  22423-2 0  9996","line2":"2 62881  43.0000  80.5491 0001198 282.3045  77.7689 15.70898237 75493","mean_motion":15.70898237,"eccentricity":0.0001198,"inclination_deg":43,"raan_deg":80.5491,"arg_perigee_deg":282.3045,"mean_anomaly_deg":77.7689,"bstar":0.0022423,"rev_number":7549,"period_min":91.667300025113,"perigee_km":355.52182548506,"apogee_km":357.13540344628,"semimajor_km":6734.4656144657,"source":"CELESTRAK","updated_at":"2026-05-25T13:38:19.788506Z"}}}